TimeEEST,TemperatureF,Dew PointF,Humidity,Sea Level PressureIn,VisibilityMPH,Wind Direction,Wind SpeedMPH,Gust SpeedMPH,PrecipitationIn,Events,Conditions,WindDirDegrees,DateUTC
12:20 AM,50.0,46.4,87,29.98,4.3,North,11.5,-,N/A,Rain,Light Rain Showers,10,2013-04-15 21:20:00
12:50 AM,50.0,48.2,94,29.98,3.7,North,12.7,-,N/A,Rain,Light Rain Showers,360,2013-04-15 21:50:00
1:20 AM,50.0,48.2,94,29.98,2.5,North,10.4,-,N/A,Rain,Rain Showers,360,2013-04-15 22:20:00
1:50 AM,50.0,48.2,94,29.95,2.5,North,10.4,-,N/A,Rain,Rain Showers,350,2013-04-15 22:50:00
2:20 AM,50.0,50.0,100,29.95,2.5,North,11.5,-,N/A,Rain,Rain Showers,360,2013-04-15 23:20:00
2:50 AM,50.0,50.0,100,29.95,3.7,North,10.4,-,N/A,Rain,Light Rain Showers,360,2013-04-15 23:50:00
3:00 AM,50,50,98,29.96,6,North,10.4,,,Rain,Light Rain Showers,0,2013-04-16 00:00:00
3:20 AM,50.0,48.2,94,29.95,3.7,North,9.2,-,N/A,Rain,Light Rain Showers,10,2013-04-16 00:20:00
3:50 AM,50.0,48.2,94,29.95,2.5,NNE,9.2,-,N/A,Rain,Rain Showers,20,2013-04-16 00:50:00
4:20 AM,50.0,48.2,94,29.92,3.7,NNE,8.1,-,N/A,Rain,Light Rain Showers,20,2013-04-16 01:20:00
4:50 AM,50.0,48.2,94,29.92,4.3,NNE,10.4,-,N/A,Rain,Light Rain Showers,20,2013-04-16 01:50:00
5:20 AM,50.0,48.2,94,29.92,4.3,North,11.5,-,N/A,Rain,Light Rain Showers,10,2013-04-16 02:20:00
5:50 AM,50.0,48.2,94,29.92,4.3,North,11.5,-,N/A,Rain,Light Rain Showers,10,2013-04-16 02:50:00
6:20 AM,50.0,46.4,87,29.95,4.3,North,9.2,-,N/A,Rain,Light Rain Showers,10,2013-04-16 03:20:00
6:50 AM,50.0,46.4,87,29.95,1.4,North,11.5,-,N/A,Rain,Light Rain Showers,360,2013-04-16 03:50:00
7:20 AM,50.0,48.2,94,29.95,3.7,North,9.2,-,N/A,Rain,Light Rain Showers,350,2013-04-16 04:20:00
7:50 AM,50.0,50.0,100,29.95,3.7,North,10.4,-,N/A,Rain,Light Rain Showers,10,2013-04-16 04:50:00
8:20 AM,50.0,50.0,100,29.95,1.7,North,10.4,-,N/A,Rain,Light Rain Showers,350,2013-04-16 05:20:00
8:50 AM,50.0,50.0,100,29.95,2.8,North,13.8,-,N/A,Rain,Light Rain Showers,350,2013-04-16 05:50:00
9:00 AM,50,50,98,29.96,3,North,13.8,,,Rain,Light Rain Showers,350,2013-04-16 06:00:00
9:20 AM,51.8,48.2,88,29.95,3.1,North,12.7,-,N/A,Rain,Light Rain Showers,360,2013-04-16 06:20:00
9:50 AM,50.0,48.2,94,29.95,3.7,North,15.0,-,N/A,Rain,Light Rain Showers,360,2013-04-16 06:50:00
10:20 AM,50.0,46.4,87,29.95,3.7,North,12.7,-,N/A,Rain,Light Rain Showers,360,2013-04-16 07:20:00
10:50 AM,50.0,46.4,87,29.95,3.7,North,15.0,-,N/A,Rain,Light Rain Showers,360,2013-04-16 07:50:00
11:20 AM,50.0,46.4,87,29.95,3.7,North,13.8,-,N/A,Rain,Light Rain Showers,360,2013-04-16 08:20:00
11:43 AM,50.0,46.4,87,29.98,3.7,North,17.3,-,N/A,,Mostly Cloudy,350,2013-04-16 08:43:00
11:50 AM,50.0,46.4,87,29.98,6.2,North,15.0,-,N/A,,Mostly Cloudy,350,2013-04-16 08:50:00
12:20 PM,50.0,44.6,82,29.95,5.0,North,17.3,-,N/A,,Mostly Cloudy,350,2013-04-16 09:20:00
12:50 PM,50.0,44.6,82,29.98,4.3,North,20.7,-,N/A,Rain,Light Rain Showers,360,2013-04-16 09:50:00
1:20 PM,50.0,44.6,82,29.98,3.7,North,23.0,38.0,N/A,Rain,Light Rain Showers,360,2013-04-16 10:20:00
1:43 PM,50.0,42.8,76,29.98,3.7,North,20.7,32.2,N/A,,Mostly Cloudy,360,2013-04-16 10:43:00
1:50 PM,50.0,42.8,76,29.98,3.7,North,23.0,34.5,N/A,,Mostly Cloudy,360,2013-04-16 10:50:00
2:20 PM,50.0,42.8,76,29.98,4.3,North,24.2,-,N/A,,Mostly Cloudy,360,2013-04-16 11:20:00
2:50 PM,50.0,42.8,76,29.98,3.7,North,21.9,33.4,N/A,,Mostly Cloudy,360,2013-04-16 11:50:00
3:00 PM,49,43,71,30.00,4,North,21.9,,,,Mist,0,2013-04-16 12:00:00
3:20 PM,50.0,42.8,76,29.98,3.7,North,19.6,-,N/A,Rain,Light Rain Showers,360,2013-04-16 12:20:00
3:32 PM,48.2,42.8,82,29.98,4.3,North,20.7,-,N/A,,Mostly Cloudy,360,2013-04-16 12:32:00
3:50 PM,48.2,42.8,82,29.98,4.3,North,21.9,34.5,N/A,,Mostly Cloudy,360,2013-04-16 12:50:00
4:20 PM,48.2,42.8,82,30.01,4.3,North,19.6,-,N/A,Rain,Light Rain Showers,360,2013-04-16 13:20:00
4:50 PM,48.2,42.8,82,30.01,1.2,North,18.4,-,N/A,Rain,Light Rain Showers,360,2013-04-16 13:50:00
5:20 PM,48.2,42.8,82,30.01,1.1,North,19.6,-,N/A,,Mostly Cloudy,360,2013-04-16 14:20:00
5:50 PM,48.2,42.8,82,30.01,1.1,North,16.1,-,N/A,Rain,Light Rain Showers,360,2013-04-16 14:50:00
6:20 PM,48.2,42.8,82,30.01,1.0,North,15.0,-,N/A,,Mostly Cloudy,350,2013-04-16 15:20:00
6:50 PM,46.4,42.8,87,30.01,2.2,North,13.8,-,N/A,,Mostly Cloudy,350,2013-04-16 15:50:00
7:20 PM,46.4,41.0,81,30.04,2.2,North,16.1,-,N/A,,Mostly Cloudy,350,2013-04-16 16:20:00
7:50 PM,48.2,42.8,82,30.01,2.5,North,12.7,-,N/A,,Mostly Cloudy,350,2013-04-16 16:50:00
8:20 PM,48.2,42.8,82,30.01,2.5,North,16.1,-,N/A,,Mostly Cloudy,350,2013-04-16 17:20:00
8:50 PM,48.2,41.0,76,30.01,2.5,North,13.8,-,N/A,,Mostly Cloudy,360,2013-04-16 17:50:00
9:00 PM,49,42,69,30.04,2,North,13.8,,,,Mist,0,2013-04-16 18:00:00
9:20 PM,50.0,42.8,76,30.04,2.5,North,15.0,-,N/A,,Mostly Cloudy,360,2013-04-16 18:20:00
9:50 PM,48.2,42.8,82,30.01,2.5,North,13.8,-,N/A,,Mostly Cloudy,360,2013-04-16 18:50:00
10:20 PM,48.2,42.8,82,30.04,2.5,North,11.5,-,N/A,,Mostly Cloudy,350,2013-04-16 19:20:00
10:50 PM,48.2,44.6,87,30.04,2.5,North,11.5,-,N/A,,Mostly Cloudy,350,2013-04-16 19:50:00
11:20 PM,48.2,44.6,87,30.04,2.5,North,11.5,-,N/A,Rain,Light Rain Showers,350,2013-04-16 20:20:00
11:50 PM,48.2,44.6,87,30.04,2.5,North,13.8,-,N/A,,Mostly Cloudy,350,2013-04-16 20:50:00